GW0544 Weather Reports


Display with metric or nautical units.
time (UTC)temp
F
wind
direction
speed
MPH
gust
MPH
rain 1hr
in
rain 24hr
in
rain mn
in
humidity
%
barometer
mb
20260901230106 88 250 5.0 15.0 0.00 0.00 0.00 31 1016.9
20260901224609 88 257 5.0 13.0 0.00 0.00 0.00 31 1016.7
20260901223116 86 216 6.0 12.0 0.00 0.00 0.00 33 1017.0
20260901221631 86 294 6.0 12.0 0.00 0.00 0.00 32 1017.2
20260901220108 88 268 6.0 13.0 0.00 0.00 0.00 32 1017.2
20260901214607 89 352 6.0 14.0 0.00 0.00 0.00 32 1017.2
20260901213105 88 278 2.0 12.0 0.00 0.00 0.00 33 1017.5
20260901211601 89 276 6.0 12.0 0.00 0.00 0.00 30 1017.6
20260901210106 89 241 5.0 12.0 0.00 0.00 0.00 29 1017.7
20260901204602 89 269 5.0 15.0 0.00 0.00 0.00 27 1017.7
20260901203106 88 245 6.0 12.0 0.00 0.00 0.00 26 1017.8
20260901201604 87 256 7.0 14.0 0.00 0.00 0.00 25 1017.7
20260901194558 87 242 4.0 14.0 0.00 0.00 0.00 26 1017.8
20260901193109 87 268 3.0 14.0 0.00 0.00 0.00 27 1018.1
20260901191557 87 258 4.0 10.0 0.00 0.00 0.00 26 1018.3
20260901190059 87 255 6.0 11.0 0.00 0.00 0.00 26 1018.4
20260901184607 86 306 4.0 12.0 0.00 0.00 0.00 25 1018.5
20260901183105 86 252 5.0 11.0 0.00 0.00 0.00 25 1018.5
20260901181603 86 290 5.0 9.0 0.00 0.00 0.00 24 1018.6
20260901174559 85 246 4.0 10.0 0.00 0.00 0.00 22 1018.5
20260901173104 85 244 4.0 9.0 0.00 0.00 0.00 18 1018.7
20260901171607 84 279 3.0 8.0 0.00 0.00 0.00 18 1018.5
20260901170104 84 236 5.0 8.0 0.00 0.00 0.00 18 1018.5
20260901164601 83 224 4.0 9.0 0.00 0.00 0.00 18 1018.2
20260901163116 83 238 4.0 7.0 0.00 0.00 0.00 19 1018.2
20260901161601 82 234 1.0 5.0 0.00 0.00 0.00 20 1018.0
20260901160107 80 0 0.0 4.0 0.00 0.00 0.00 26 1018.0
20260901154601 77 0 0.0 2.0 0.00 0.00 0.00 29 1018.1
20260901153105 73 0 0.0 0.0 0.00 0.00 0.00 40 1017.9
20260901151604 69 0 0.0 0.0 0.00 0.00 0.00 45 1017.9
20260901150109 63 0 0.0 0.0 0.00 0.00 0.00 51 1018.0
20260901144600 59 0 0.0 0.0 0.00 0.00 0.00 58 1017.9
20260901143100 55 81 1.0 4.0 0.00 0.00 0.00 64 1017.8
20260901141602 51 81 0.0 4.0 0.00 0.00 0.00 71 1017.7
20260901140110 49 0 0.0 1.0 0.00 0.00 0.00 69 1017.7
20260901134626 49 0 1.0 4.0 0.00 0.00 0.00 70 1017.7
20260901133104 48 77 1.0 4.0 0.00 0.00 0.00 70 1017.7
20260901131602 49 0 0.0 3.0 0.00 0.00 0.00 69 1017.6
20260901130112 49 80 1.0 4.0 0.00 0.00 0.00 71 1017.5
20260901124608 49 86 1.0 4.0 0.00 0.00 0.00 72 1017.5
20260901123103 48 88 1.0 3.0 0.00 0.00 0.00 73 1017.5
20260901121604 48 88 0.0 2.0 0.00 0.00 0.00 70 1017.4
20260901120106 49 0 0.0 0.0 0.00 0.00 0.00 70 1017.3
20260901114558 50 0 0.0 0.0 0.00 0.00 0.00 69 1017.3
20260901113140 50 0 0.0 4.0 0.00 0.00 0.00 71 1017.2
20260901111601 50 101 1.0 4.0 0.00 0.00 0.00 73 1017.2
20260901110107 50 103 1.0 3.0 0.00 0.00 0.00 70 1017.0
20260901104606 51 0 0.0 0.0 0.00 0.00 0.00 70 1017.0
20260901103105 51 0 0.0 0.0 0.00 0.00 0.00 71 1017.1
20260901101614 51 0 0.0 3.0 0.00 0.00 0.00 71 1017.2
20260901100108 51 0 0.0 3.0 0.00 0.00 0.00 70 1017.2
20260901094600 52 0 0.0 0.0 0.00 0.00 0.00 69 1017.3
20260901093102 53 0 0.0 2.0 0.00 0.00 0.00 68 1017.4
20260901091600 54 107 0.0 2.0 0.00 0.00 0.00 67 1017.4
20260901084607 55 0 0.0 0.0 0.00 0.00 0.00 70 1017.6
20260901083106 55 0 0.0 2.0 0.00 0.00 0.00 69 1017.6
20260901081616 55 0 0.0 1.0 0.00 0.00 0.00 67 1017.6
20260901080105 56 0 1.0 4.0 0.00 0.00 0.00 66 1017.7
20260901074604 56 111 2.0 4.0 0.00 0.00 0.00 69 1017.7
20260901073105 56 0 0.0 0.0 0.00 0.00 0.00 64 1017.7
20260901071558 56 0 0.0 0.0 0.00 0.00 0.00 66 1017.7
20260901070108 57 0 0.0 0.0 0.00 0.00 0.00 63 1017.7
20260901064605 58 0 0.0 2.0 0.00 0.00 0.00 62 1017.7
20260901063102 59 0 0.0 3.0 0.00 0.00 0.00 63 1017.7
20260901061600 59 121 0.0 2.0 0.00 0.00 0.00 64 1017.8
20260901060115 59 0 0.0 0.0 0.00 0.00 0.00 61 1017.9
20260901054559 60 0 0.0 0.0 0.00 0.00 0.00 62 1017.8
20260901053111 60 0 0.0 0.0 0.00 0.00 0.00 60 1017.7
20260901051608 61 0 0.0 0.0 0.00 0.00 0.00 59 1017.6
20260901044627 64 0 0.0 0.0 0.00 0.00 0.00 57 1017.8
20260901043120 65 0 0.0 0.0 0.00 0.00 0.00 56 1017.6
20260901041600 66 122 0.0 6.0 0.00 0.00 0.00 55 1017.5
20260901040110 67 0 0.0 4.0 0.00 0.00 0.00 54 1017.2
20260901034608 69 0 0.0 3.0 0.00 0.00 0.00 53 1017.2
20260901033107 70 0 0.0 2.0 0.00 0.00 0.00 52 1017.2
20260901031602 71 0 0.0 4.0 0.00 0.00 0.00 51 1016.9
20260901030104 72 213 3.0 5.0 0.00 0.00 0.00 49 1016.6
20260901024607 74 232 1.0 6.0 0.00 0.00 0.00 47 1016.4
20260901023107 75 304 3.0 9.0 0.00 0.00 0.00 45 1016.2
20260901021636 77 290 2.0 6.0 0.00 0.00 0.00 42 1016.1
20260901020115 80 311 3.0 6.0 0.00 0.00 0.00 39 1015.9
20260901014607 82 251 3.0 7.0 0.00 0.00 0.00 35 1015.9
20260901013110 85 267 2.0 10.0 0.00 0.00 0.00 32 1015.8
20260901011607 87 275 3.0 9.0 0.00 0.00 0.00 32 1015.6
20260901010111 87 327 1.0 9.0 0.00 0.00 0.00 32 1015.5
20260901004612 87 265 3.0 10.0 0.00 0.00 0.00 33 1015.6
20260901003124 87 250 4.0 11.0 0.00 0.00 0.00 34 1015.7
20260901001612 88 318 6.0 13.0 0.00 0.00 0.00 34 1015.8
20260901000124 89 291 6.0 13.0 0.00 0.00 0.00 33 1015.6
20260831234629 89 244 5.0 10.0 0.00 0.00 0.00 33 1015.6
20260831233102 89 317 4.0 11.0 0.00 0.00 0.00 35 1015.8
20260831231609 89 202 6.0 13.0 0.00 0.00 0.00 35 1015.7